Temperature
15 15 15 15 15 15 15 15 15 15 15 15 15 15 15 15 15 15 15 15 15 15 15 15 15 15 15 15 15 15 15 15 15 15 15 15 15 15 15 15 15 15 15
15 15 15 15 15 15 15 15 15 15 15 15 15 15 15 15 14 14 14 14 15 15 15 15 15 15 15 15 15 15 15 15 15 15 15 15 15 15 15 15 15 15 15
15 15 15 15 15 15 15 15 15 14 14 14 14 14 14 14 14 14 14 14 14 14 14 14 14 14 14 14 14 15 15 15 15 15 14 14 14 14 14 14 15 15 15
15 15 15 15 15 14 14 14 14 14 14 14 14 14 14 14 14 14 14 14 14 14 14 14 14 14 14 14 14 14 14 14 14 14 14 14 14 14 14 14 14 14 14
15 15 15 14 14 14 14 14 14 14 14 14 14 14 14 14 14 14 14 14 14 13 13 13 14 14 14 14 14 14 14 14 14 14 14 14 14 14 14 14 14 14 14
15 15 14 14 14 14 14 14 14 14 14 14 14 13 13 13 13 13 13 13 13 13 13 13 13 13 13 13 13 13 13 13 13 13 13 13 13 13 13 13 13 14 13
15 14 14 14 14 14 14 14 14 14 13 13 13 13 13 13 13 13 13 13 13 13 13 12 13 12 12 13 13 13 13 13 13 13 13 13 13 13 13 13 13 13 13
14 14 14 14 14 14 14 13 13 13 13 13 13 13 13 13 13 13 12 12 12 12 12 12 12 12 12 12 13 13 13 13 13 13 13 13 13 13 13 13 13 13 13
14 14 14 14 14 14 13 13 13 13 13 13 13 13 14 14 13 12 12 12 12 12 12 12 12 12 12 12 12 13 13 13 13 13 13 12 12 12 12 12 12 12 12
14 14 14 14 14 13 13 13 13 13 13 13 13 13 13 13 13 13 12 12 12 12 12 12 11 11 12 12 12 12 13 13 12 12 12 12 12 12 12 12 12 12 12
14 14 14 14 13 13 13 13 13 13 13 13 12 12 12 12 12 13 12 12 12 11 11 11 11 11 11 11 11 12 12 12 12 12 12 12 12 12 12 12 12 12 12
14 14 13 13 13 13 13 13 13 13 13 12 12 12 12 12 12 12 12 12 12 11 11 11 11 11 11 11 11 12 12 12 12 12 12 12 12 12 12 12 12 12 11
13 13 13 13 13 13 13 13 13 12 12 12 12 12 12 12 12 12 12 12 12 11 11 11 11 11 11 11 11 11 12 12 12 12 12 12 12 12 12 12 12 12 11
13 13 13 13 13 13 13 13 12 12 12 12 12 12 12 12 12 12 11 12 12 12 11 11 11 11 11 11 11 11 11 11 11 11 11 11 11 11 11 11 11 11 11
13 13 13 13 13 13 12 12 12 12 12 12 12 12 12 12 11 11 11 11 11 12 12 11 11 11 11 11 11 11 10 11 11 11 11 11 11 11 11 11 11 11 11
13 13 13 13 13 12 12 12 12 12 12 12 12 12 12 11 11 11 11 11 11 11 11 11 10 10 10 10 11 10 10 11 11 11 11 11 11 11 11 11 11 11 11
13 13 13 12 12 12 12 12 12 12 12 12 12 11 11 11 11 11 11 11 11 10 11 11 10 10 10 10 10 10 10 10 10 11 11 11 11 11 11 11 11 10 10
13 13 12 12 12 12 12 12 12 12 11 11 11 11 11 11 11 11 11 11 10 10 10 10 10 10 10 10 10 10 10 10 10 10 11 11 11 11 11 10 10 10 10
13 12 12 12 12 12 12 12 12 11 11 11 11 11 11 11 11 10 10 10 10 10 10 10 10 10 10 10 10 10 10 10 10 10 10 10 10 10 10 10 10 10 10
12 12 12 12 12 12 12 11 11 11 11 11 11 11 11 11 10 10 10 10 10 10 10 10 10 10 9 9 9 9 9 9 9 9 10 10 10 10 10 10 10 10 10
12 12 12 11 11 11 11 11 11 11 11 11 11 11 11 10 10 10 10 10 10 10 10 9 9 9 9 9 9 9 9 9 9 9 9 9 9 9 9 10 10 10 9
11 11 11 11 11 11 11 11 11 11 11 11 10 10 10 10 10 10 10 10 9 9 9 9 9 9 9 9 9 9 9 9 9 9 9 9 9 9 9 9 9 9 9
11 11 11 11 11 11 11 11 11 10 10 10 10 10 10 10 10 10 10 10 9 9 9 9 9 9 9 9 9 9 9 9 8 9 9 9 9 9 9 9 9 9 9
11 11 11 11 11 11 11 10 10 10 10 10 10 10 10 10 9 9 9 9 9 9 9 9 9 9 9 9 9 9 9 8 8 8 8 8 8 8 8 9 9 9 9
11 11 10 10 10 10 10 10 10 9 9 9 9 9 9 9 9 9 9 9 9 9 9 9 9 9 9 9 9 8 8 8 8 8 8 8 8 8 8 8 8 8 8
10 10 10 10 10 10 10 10 9 9 9 9 9 9 9 9 9 9 9 9 8 9 8 8 8 8 8 8 8 8 8 8 8 8 8 8 7 7 7 8 7 7 8
Wind_Speed
3 3 3 4 4 4 4 4 4 5 5 6 5 5 5 5 5 6 7 11 10 10 9 8 7 7 7 6 6 6 6 6 7 7 7 7 7 6 6 4 4 4 3
3 3 3 3 4 4 4 4 4 4 4 4 5 5 5 5 5 5 5 8 10 10 10 9 7 6 6 5 5 5 6 5 5 6 6 6 7 7 7 6 5 5 5
3 3 2 3 3 3 3 3 4 4 4 4 4 5 5 5 4 4 5 4 5 8 9 9 8 7 6 5 5 5 5 5 5 5 6 6 6 6 6 6 6 6 6
3 3 2 2 3 3 3 3 3 3 3 3 3 3 3 3 3 4 4 4 3 4 7 9 9 8 7 6 5 5 5 5 6 6 5 5 5 5 6 6 6 6 6
2 2 2 2 3 3 2 2 2 2 3 3 3 3 3 3 3 3 4 4 4 3 3 6 8 8 7 6 5 5 4 4 5 5 4 4 5 5 6 6 6 6 6
2 2 2 2 2 2 2 2 3 2 2 2 2 3 3 3 3 3 3 4 4 4 4 3 3 6 8 7 6 5 5 4 4 4 4 5 5 5 5 5 5 5 5
1 2 1 2 2 2 2 2 2 3 2 1 1 1 2 2 3 2 2 3 3 4 4 3 3 3 4 6 6 5 4 4 3 3 3 4 4 4 4 4 4 4 5
2 1 2 2 2 2 2 2 2 1 1 0 1 1 1 2 1 2 2 2 2 2 3 3 3 3 3 3 6 5 4 4 3 2 3 3 3 3 4 4 4 4 4
2 2 2 2 2 2 2 2 2 2 1 1 1 1 2 1 0 1 1 1 1 1 1 2 2 3 3 3 3 5 6 5 3 3 3 3 2 3 3 3 3 3 3
2 2 2 2 2 1 2 2 2 2 2 1 0 1 2 2 2 1 1 0 0 1 1 1 1 2 2 2 3 5 5 5 4 3 3 2 2 2 2 2 2 2 2
2 2 2 2 2 2 2 2 2 2 2 1 1 1 1 1 3 2 2 1 1 1 1 1 1 1 2 2 2 4 4 3 3 2 2 1 1 1 1 1 1 1 2
3 3 2 2 2 2 2 2 2 3 2 2 2 2 2 2 2 2 2 2 1 1 0 1 1 0 0 0 2 4 3 2 2 2 1 1 1 1 1 1 1 0 1
3 3 3 3 2 2 2 2 3 2 3 3 3 2 2 2 2 3 3 2 2 1 1 2 1 1 1 1 1 2 2 2 2 2 1 1 1 1 1 1 1 0 1
4 3 3 3 3 3 3 2 2 3 2 3 3 2 2 2 2 2 3 2 3 2 2 2 1 1 1 1 1 2 1 2 0 1 1 1 1 1 1 1 1 1 1
4 4 4 3 3 3 3 3 3 3 3 3 3 3 2 2 2 3 3 3 3 3 2 1 1 1 1 1 1 2 1 2 1 0 0 0 1 1 1 1 1 1 1
4 5 4 4 3 3 4 3 3 3 3 3 2 3 3 2 2 2 3 3 4 4 3 2 2 1 1 2 2 3 1 2 2 1 1 1 2 2 2 2 1 1 1
5 5 5 4 4 4 4 4 4 4 4 4 3 3 3 3 3 3 3 3 3 4 4 3 2 2 3 2 1 2 2 2 2 3 2 2 2 2 2 2 1 1 0
5 6 5 5 5 5 5 5 5 4 4 4 4 4 3 2 4 3 3 3 3 4 4 4 3 3 3 3 2 2 2 2 2 3 3 3 3 2 2 2 2 2 2
5 5 5 5 5 5 5 5 5 5 5 4 4 4 4 4 4 3 4 4 3 4 4 4 3 3 3 2 3 3 2 2 2 3 4 4 4 3 3 3 3 3 2
4 5 5 5 5 4 5 4 4 5 4 4 4 4 4 4 4 4 3 4 4 4 4 4 4 3 3 3 3 3 3 3 2 2 2 3 4 5 5 4 4 4 3
4 4 4 4 4 4 3 4 4 5 4 4 4 4 4 3 3 3 3 3 4 4 4 4 4 3 3 3 3 3 3 3 3 2 2 3 3 4 4 5 5 4 3
4 4 4 4 4 3 2 3 4 4 4 5 4 4 4 5 4 5 5 4 5 5 5 5 5 5 4 4 3 4 3 3 3 2 3 3 3 3 3 3 3 4 4
4 4 4 4 4 3 3 4 5 5 5 4 4 4 3 4 5 5 5 6 6 6 7 6 6 6 5 4 4 5 4 4 4 2 3 3 3 3 3 2 4 4 4
4 4 4 4 4 3 4 4 5 6 5 4 4 4 5 4 4 4 5 5 5 5 6 6 6 5 4 3 4 5 4 4 4 2 3 3 3 3 3 2 4 5 5
4 4 4 4 5 4 5 4 5 4 4 4 4 5 5 5 3 4 5 5 5 4 3 5 4 3 1 1 2 3 4 4 4 3 3 3 3 3 3 3 4 6 5
4 4 4 4 5 4 4 4 5 4 4 4 3 4 4 4 4 5 6 6 6 5 4 5 5 5 5 4 5 5 4 5 4 3 3 3 3 3 3 3 3 4 5
Wind_Direction
84 82 78 74 75 78 85 82 79 75 70 65 62 61 64 67 68 70 72 66 56 55 61 68 72 76 74 74 76 79 83 87 89 88 86 86 83 83 85 79 71 72 77
80 77 76 71 70 76 78 86 88 79 72 69 65 63 60 65 67 72 70 73 66 57 55 60 63 66 70 72 75 82 84 85 89 90 89 88 87 82 79 76 75 69 72
89 82 73 72 71 82 89 86 87 81 79 77 72 63 59 55 61 67 66 61 69 70 59 54 54 55 60 64 73 80 86 85 87 92 91 88 86 81 77 75 71 69 69
90 82 82 79 79 84 84 92 89 89 85 73 68 65 69 68 64 63 68 71 61 62 71 61 53 51 53 58 67 75 87 89 91 95 93 89 87 85 79 72 71 68 67
94 99 90 93 94 89 83 89 94 93 89 78 68 61 57 61 60 60 62 57 58 57 66 80 68 57 54 56 59 68 82 94 95 97 98 97 93 87 80 74 72 72 68
98 100 111 108 101 97 94 100 105 98 88 88 78 66 60 65 66 54 52 52 44 42 40 51 70 77 70 62 58 62 70 84 94 99 100 100 97 89 83 78 73 71 71
113 110 129 113 105 99 100 111 115 116 108 101 99 95 93 71 63 68 52 39 47 42 33 41 45 52 83 83 65 57 60 71 88 101 105 107 102 96 89 81 76 71 66
143 136 143 137 130 123 131 126 135 145 129 222 294 279 215 168 97 64 64 42 37 47 28 30 46 51 37 58 74 66 50 51 70 95 99 98 101 102 93 84 79 77 74
157 160 157 149 157 165 156 170 175 181 203 221 295 301 294 316 31 135 46 39 30 14 7 19 27 45 48 48 64 76 55 43 56 82 89 90 96 98 93 85 81 83 85
158 166 171 172 166 168 180 194 193 208 215 220 207 314 319 331 292 250 188 72 2 336 347 5 2 32 52 53 63 60 58 42 37 55 74 79 72 79 88 84 80 100 102
167 166 177 187 185 186 199 204 206 217 215 239 240 237 274 279 275 286 276 263 238 283 335 328 316 358 43 45 49 62 59 43 33 42 51 65 66 65 69 84 71 114 125
183 178 181 187 198 200 202 207 213 216 232 236 241 235 240 254 270 268 267 258 260 252 266 283 271 287 353 65 75 69 66 51 41 44 58 60 51 61 57 40 33 94 152
196 191 188 196 194 201 203 212 219 222 226 233 242 251 253 261 279 278 273 270 273 257 234 220 219 227 254 257 124 105 106 83 49 43 52 55 55 55 51 22 4 337 207
210 195 194 198 201 204 209 213 231 229 233 234 240 243 248 255 257 264 275 278 273 262 237 239 195 205 226 247 55 224 147 128 63 15 8 33 26 48 37 19 9 1 342
207 197 199 202 205 208 212 209 225 227 231 241 245 236 237 247 244 248 251 255 266 266 259 229 228 217 231 248 226 235 213 125 161 191 17 302 248 240 244 309 348 359 2
205 197 199 204 205 207 214 216 228 241 236 231 240 242 239 237 235 234 245 251 257 266 266 251 241 233 233 240 233 246 228 147 168 178 206 266 245 239 239 248 278 331 7
208 204 202 208 207 209 212 212 221 225 235 233 230 237 241 242 233 226 233 242 244 251 251 250 245 241 227 232 219 243 230 224 195 183 209 244 253 236 240 243 245 235 285
208 208 206 209 208 212 215 217 219 224 231 236 234 235 239 236 240 242 237 240 240 244 242 241 234 238 243 237 242 246 230 229 228 170 194 230 240 237 239 235 228 229 254
208 210 208 210 210 211 214 219 220 222 227 231 235 237 237 233 235 241 240 244 243 238 235 234 234 227 235 226 236 243 236 241 242 200 193 218 225 228 230 232 231 236 247
205 210 210 208 208 210 214 215 220 225 224 227 236 241 238 232 237 244 242 241 238 234 231 231 228 218 214 220 232 237 232 229 240 235 217 227 214 217 222 225 226 227 234
204 206 211 210 206 209 212 219 221 227 226 227 232 236 238 244 261 261 260 249 238 231 227 230 228 225 220 216 226 229 235 234 229 231 237 234 217 221 211 211 212 214 222
199 199 206 209 210 211 171 219 242 228 230 230 233 236 233 227 229 231 248 261 262 240 230 232 231 229 233 231 231 232 232 237 240 221 246 252 239 241 235 225 182 193 212
197 203 208 209 212 202 179 207 234 239 235 233 235 238 235 233 228 230 224 225 237 247 246 249 245 242 239 231 227 229 233 240 249 242 258 255 242 253 255 222 175 197 215
200 205 210 214 214 210 191 214 231 235 240 241 239 238 237 237 229 238 236 233 236 240 240 240 246 252 251 237 231 238 239 241 249 236 239 257 254 256 255 234 180 199 219
207 211 213 219 219 213 195 216 237 237 240 244 245 243 240 236 224 237 237 235 234 236 233 238 256 253 288 277 248 227 222 227 237 233 226 251 260 261 261 241 191 188 205
216 219 220 224 225 225 187 208 240 238 246 251 253 246 234 245 234 231 231 230 232 230 223 213 215 218 215 199 208 226 234 236 242 240 217 236 247 250 250 234 224 210 207
Height
1535 1535 1535 1534 1534 1534 1534 1534 1535 1535 1535 1535 1535 1535 1535 1535 1535 1535 1535 1534 1534 1533 1533 1533 1533 1533 1533 1533 1533 1533 1533 1533 1533 1533 1533 1533 1534 1534 1533 1533 1533 1533 1534
1535 1535 1536 1535 1535 1535 1535 1536 1536 1535 1535 1535 1535 1535 1536 1536 1536 1536 1536 1535 1534 1534 1534 1534 1533 1533 1533 1533 1533 1533 1533 1533 1533 1533 1533 1533 1533 1534 1533 1533 1533 1533 1533
1536 1536 1536 1536 1536 1536 1536 1536 1536 1536 1536 1536 1536 1536 1536 1535 1536 1536 1536 1535 1535 1535 1534 1534 1534 1533 1533 1533 1533 1533 1533 1533 1533 1533 1533 1533 1533 1533 1533 1533 1533 1533 1533
1537 1537 1536 1536 1536 1536 1536 1536 1537 1537 1536 1537 1536 1536 1536 1535 1536 1536 1536 1536 1535 1535 1534 1534 1533 1533 1533 1533 1533 1533 1533 1533 1533 1533 1533 1533 1533 1533 1533 1533 1532 1532 1532
1538 1537 1537 1537 1537 1536 1536 1536 1537 1537 1537 1537 1537 1536 1536 1536 1536 1535 1535 1536 1536 1535 1535 1534 1533 1533 1532 1532 1532 1532 1533 1533 1532 1533 1533 1533 1533 1533 1533 1532 1532 1532 1532
1538 1537 1537 1537 1537 1536 1536 1536 1537 1537 1537 1537 1537 1536 1536 1536 1536 1535 1535 1535 1535 1535 1534 1534 1533 1533 1532 1532 1532 1532 1532 1532 1532 1532 1532 1532 1532 1532 1532 1532 1532 1532 1532
1537 1537 1537 1537 1536 1536 1536 1537 1537 1537 1537 1537 1537 1537 1537 1536 1536 1535 1535 1535 1535 1534 1534 1534 1533 1533 1532 1531 1531 1531 1532 1532 1532 1532 1532 1532 1531 1531 1531 1531 1531 1531 1531
1537 1537 1537 1536 1536 1536 1536 1536 1536 1536 1536 1536 1537 1537 1537 1538 1536 1536 1535 1534 1534 1533 1533 1533 1533 1532 1532 1532 1531 1531 1531 1531 1531 1531 1531 1531 1531 1531 1531 1531 1531 1530 1530
1536 1536 1536 1536 1536 1536 1536 1536 1536 1536 1536 1536 1536 1537 1537 1536 1536 1536 1535 1534 1533 1533 1533 1533 1533 1532 1532 1531 1531 1530 1530 1530 1530 1530 1531 1531 1531 1531 1531 1530 1530 1530 1530
1535 1535 1535 1535 1535 1535 1535 1535 1536 1535 1535 1536 1535 1535 1536 1535 1536 1535 1535 1534 1533 1532 1532 1532 1532 1531 1531 1530 1530 1529 1529 1529 1529 1530 1530 1530 1530 1530 1530 1529 1529 1529 1529
1534 1534 1534 1534 1534 1534 1535 1535 1535 1535 1535 1535 1534 1534 1534 1534 1534 1534 1534 1534 1533 1532 1531 1531 1531 1530 1530 1529 1529 1528 1528 1528 1528 1529 1529 1529 1529 1528 1528 1528 1528 1528 1528
1533 1533 1533 1533 1533 1533 1534 1533 1533 1533 1533 1533 1533 1533 1533 1533 1533 1533 1533 1532 1532 1532 1530 1530 1529 1529 1528 1528 1528 1527 1527 1527 1527 1527 1527 1527 1527 1527 1527 1527 1527 1526 1526
1531 1531 1531 1532 1532 1532 1532 1532 1532 1532 1532 1532 1532 1532 1532 1532 1532 1532 1532 1531 1531 1530 1529 1529 1528 1528 1527 1527 1526 1526 1526 1526 1526 1526 1526 1526 1526 1526 1526 1525 1525 1525 1525
1529 1529 1530 1530 1530 1530 1530 1530 1530 1530 1530 1530 1530 1530 1530 1530 1530 1530 1530 1530 1530 1529 1529 1528 1527 1527 1526 1526 1525 1525 1525 1525 1524 1524 1524 1524 1524 1524 1524 1524 1524 1524 1524
1526 1527 1527 1528 1528 1528 1528 1528 1528 1529 1529 1529 1528 1528 1528 1528 1528 1527 1528 1528 1529 1528 1527 1527 1526 1526 1525 1525 1524 1524 1524 1523 1523 1523 1523 1523 1523 1523 1523 1523 1523 1522 1522
1523 1524 1525 1525 1526 1526 1526 1526 1526 1526 1527 1526 1526 1526 1526 1526 1525 1525 1525 1526 1527 1527 1526 1525 1524 1524 1524 1523 1523 1523 1522 1522 1522 1522 1521 1521 1521 1521 1521 1521 1521 1521 1521
1520 1521 1522 1522 1523 1523 1524 1524 1524 1524 1524 1524 1524 1524 1524 1524 1524 1523 1523 1523 1524 1524 1524 1523 1523 1522 1522 1522 1521 1521 1521 1521 1520 1520 1520 1520 1520 1519 1519 1519 1519 1519 1519
1517 1518 1519 1519 1520 1520 1521 1521 1522 1521 1521 1521 1522 1522 1522 1521 1521 1521 1521 1521 1521 1521 1522 1521 1520 1520 1520 1520 1520 1519 1519 1519 1519 1518 1518 1518 1518 1518 1517 1517 1517 1517 1517
1514 1515 1516 1517 1517 1517 1518 1518 1519 1519 1519 1519 1519 1519 1519 1519 1519 1519 1518 1518 1518 1518 1518 1518 1518 1518 1518 1518 1517 1517 1517 1517 1517 1516 1516 1516 1516 1516 1516 1516 1515 1515 1515
1510 1512 1513 1514 1514 1515 1515 1515 1516 1516 1516 1516 1516 1516 1516 1516 1516 1516 1516 1516 1515 1515 1516 1516 1516 1515 1515 1515 1515 1515 1515 1515 1515 1515 1514 1514 1514 1514 1514 1513 1513 1513 1512
1508 1509 1510 1511 1511 1512 1512 1512 1513 1513 1513 1513 1513 1513 1513 1513 1513 1513 1513 1513 1513 1513 1513 1513 1513 1513 1513 1512 1513 1513 1513 1513 1513 1512 1512 1512 1512 1512 1512 1511 1511 1510 1510
1505 1506 1507 1508 1508 1509 1509 1509 1510 1510 1510 1510 1509 1509 1509 1509 1509 1509 1509 1509 1509 1510 1510 1510 1510 1510 1510 1510 1510 1510 1511 1511 1511 1511 1510 1510 1510 1510 1510 1509 1508 1508 1508
1502 1503 1504 1505 1505 1505 1506 1506 1506 1506 1506 1506 1506 1506 1506 1505 1505 1506 1505 1505 1506 1505 1506 1507 1507 1507 1508 1507 1507 1508 1508 1508 1508 1508 1508 1507 1507 1507 1507 1507 1506 1505 1505
1499 1500 1501 1501 1502 1502 1502 1502 1503 1503 1503 1502 1502 1502 1502 1502 1502 1502 1502 1502 1502 1502 1502 1503 1503 1504 1504 1504 1505 1505 1505 1505 1505 1505 1505 1505 1505 1505 1504 1504 1503 1503 1502
1497 1497 1498 1498 1499 1499 1499 1499 1499 1499 1499 1499 1499 1499 1499 1499 1498 1498 1498 1498 1498 1498 1498 1498 1499 1500 1500 1500 1501 1501 1502 1502 1502 1502 1502 1502 1502 1502 1501 1501 1500 1500 1500
1494 1494 1495 1495 1495 1496 1496 1496 1496 1496 1496 1496 1495 1495 1495 1494 1495 1494 1494 1494 1494 1494 1495 1495 1495 1496 1496 1497 1497 1498 1498 1499 1499 1499 1498 1499 1498 1499 1499 1498 1498 1497 1497